WetterOnline ( https://www.wetteronline.de )

Wetter aktuell Oberammergau

Aktuelles Wetter: Garmisch-Partenkirchen (719m)

6-stündlich | Neueste Meldungen
Ortszeit Temperatur Wetter
Do, 29.09. 20:00 7.2° C leichter Regen
Do, 29.09. 14:00 8.9° C leichter Regen
Do, 29.09. 8:00 5.6° C bewölkt
Do, 29.09. 2:00 6.0° C Regen
Mi, 28.09. 20:00 7.6° C Sprühregen
Mi, 28.09. 14:00 10.7° C leichter Regen
Mi, 28.09. 8:00 5.9° C leichter Regen
Mi, 28.09. 2:00 5.4° C Sprühregen
Ortszeit Temperatur Wetter
Do, 29.09. 21:30 6.7° C leichter Regen
Do, 29.09. 21:20 6.7° C leichter Regen
Do, 29.09. 21:10 6.8° C bedeckt
Do, 29.09. 21:00 6.8° C bedeckt
Do, 29.09. 20:50 6.8° C bedeckt
Do, 29.09. 20:40 6.9° C bedeckt
Do, 29.09. 20:30 7.1° C bedeckt
Do, 29.09. 20:00 7.2° C leichter Regen
Do, 29.09. 19:30 7.4° C leichter Regen
Do, 29.09. 19:00 7.5° C leichter Regen
Do, 29.09. 18:30 7.7° C leichter Regen
Ortszeit Relative Feuchte Sichtweite
Do, 29.09. 20:00 95% 30 km
Do, 29.09. 14:00 85% 23 km
Do, 29.09. 8:00 96% 30 km
Do, 29.09. 2:00 95% 60 km
Mi, 28.09. 20:00 91% 50 km
Mi, 28.09. 14:00 79% 50 km
Mi, 28.09. 8:00 96% 50 km
Mi, 28.09. 2:00 95% >70 km
Ortszeit Relative Feuchte Sichtweite
Do, 29.09. 21:30 95% 40 km
Do, 29.09. 21:20 95% -
Do, 29.09. 21:10 95% -
Do, 29.09. 21:00 95% 30 km
Do, 29.09. 20:50 95% -
Do, 29.09. 20:40 95% -
Do, 29.09. 20:30 95% 50 km
Do, 29.09. 20:00 95% 30 km
Do, 29.09. 19:30 93% 23 km
Do, 29.09. 19:00 91% 16 km
Do, 29.09. 18:30 91% 18 km
Ortszeit Niederschlagsmenge Niederschlagsart
Do, 29.09. 20:00 6 l/m2 in 12 Std. Regen
Do, 29.09. 14:00 0.3 l/m2 in 6 Std. Regen
Do, 29.09. 8:00 7 l/m2 in 12 Std. Regen
Do, 29.09. 2:00 6 l/m2 in 6 Std. Regen
Mi, 28.09. 20:00 4 l/m2 in 12 Std. Regen
Mi, 28.09. 14:00 3 l/m2 in 6 Std. Regen
Mi, 28.09. 8:00 5 l/m2 in 12 Std. Regen
Mi, 28.09. 2:00 5 l/m2 in 6 Std. Regen
Ortszeit Niederschlagsmenge Niederschlagsart
Do, 29.09. 21:30 <0.05 l/m2 in 1 Std. -
Do, 29.09. 21:20 keine Meldung -
Do, 29.09. 21:10 keine Meldung -
Do, 29.09. 21:00 0.1 l/m2 in 1 Std. Regen
Do, 29.09. 20:50 keine Meldung -
Do, 29.09. 20:40 keine Meldung -
Do, 29.09. 20:30 0.1 l/m2 in 1 Std. Schneeregen
Do, 29.09. 20:00 1.6 l/m2 in 1 Std. Regen
Do, 29.09. 19:30 1.1 l/m2 in 1 Std. -
Do, 29.09. 19:00 1.6 l/m2 in 1 Std. Regen
Do, 29.09. 18:30 0.5 l/m2 in 1 Std. -
Ortszeit Stärke Spitze Richtung
km/h Bft. km/h Grad Sektor
Do, 29.09. 20:00 0 0 25 - -
Do, 29.09. 14:00 9 2 22 60° NO
Do, 29.09. 8:00 4 1 7 220° SW
Do, 29.09. 2:00 4 1 22 240° SW
Mi, 28.09. 20:00 7 2 29 80° O
Mi, 28.09. 14:00 2 1 7 50° NO
Mi, 28.09. 8:00 2 1 7 300° NW
Mi, 28.09. 2:00 4 1 11 280° W
Ortszeit Stärke Spitze Richtung
km/h Bft. km/h Grad Sektor
Do, 29.09. 21:30 4 1 4 190° S
Do, 29.09. 21:20 4 1 - 190° S
Do, 29.09. 21:10 2 1 - 220° SW
Do, 29.09. 21:00 4 1 4 200° S
Do, 29.09. 20:50 4 1 - 200° S
Do, 29.09. 20:40 2 1 - 210° SW
Do, 29.09. 20:30 2 1 4 250° W
Do, 29.09. 20:00 0 0 7 - -
Do, 29.09. 19:30 2 1 7 140° SO
Do, 29.09. 19:00 6 1 9 90° O
Do, 29.09. 18:30 4 1 11 130° SO
Ortszeit Untergrenze Bedeckung Gattung
total tief tief mittel hoch
Do, 29.09. 20:00 1170 m 7/8 7/8 - - -
Do, 29.09. 14:00 570 m 8/8 8/8 - - -
Do, 29.09. 8:00 60 m 8/8 4/8 - - -
Do, 29.09. 2:00 180 m 8/8 3/8 - - -
Mi, 28.09. 20:00 210 m 8/8 8/8 - - -
Mi, 28.09. 14:00 1470 m 8/8 8/8 - - -
Mi, 28.09. 8:00 1200 m 8/8 8/8 - - -
Mi, 28.09. 2:00 1350 m 8/8 1/8 - - -
Ortszeit Bedeckungsgrad in Achtel und Wolkenuntergrenze
Do, 29.09. 21:30 5(240m) 7(1350m) 8(2400m)
Do, 29.09. 21:20 5(240m) 7(1350m) 8(2400m)
Do, 29.09. 21:10 8
Do, 29.09. 21:00 4(240m) 8(1500m) 8(1800m)
Do, 29.09. 20:50 4(240m) 8(1500m) 8(1800m)
Do, 29.09. 20:40 8
Do, 29.09. 20:30 4(240m) 7(390m) 8(2700m)
Do, 29.09. 20:00 3(1170m) 7(1500m) 7(2700m)
Do, 29.09. 19:30 7(1020m) 8(1320m)
Do, 29.09. 19:00 4(690m) 5(930m) 7(1320m)
Do, 29.09. 18:30 1(210m) 5(690m) 7(1080m)
Ortszeit Luftdruck NN (hPa) Tendenz (hPa in 3 Std.)
Do, 29.09. 20:00 1006 + 1,7
Do, 29.09. 14:00 1003 + 0,6
Do, 29.09. 8:00 1003 - 0,2
Do, 29.09. 2:00 1004 - 0,3
Mi, 28.09. 20:00 1001 + 0,8
Mi, 28.09. 14:00 999 - 0,4
Mi, 28.09. 8:00 1000 - 1,0
Mi, 28.09. 2:00 1005 - 1,5
Ortszeit Luftdruck NN (hPa) Tendenz (hPa in 3 Std.)
Do, 29.09. 21:30 1007 + 1,2
Do, 29.09. 21:20 1007 keine Meldung
Do, 29.09. 21:10 1006 keine Meldung
Do, 29.09. 21:00 1006 + 1,5
Do, 29.09. 20:50 1006 keine Meldung
Do, 29.09. 20:40 1006 keine Meldung
Do, 29.09. 20:30 1006 + 1,7
Do, 29.09. 20:00 1006 + 1,7
Do, 29.09. 19:30 1006 + 1,7
Do, 29.09. 19:00 1005 + 1,4
Do, 29.09. 18:30 1005 + 1,6
Ortszeit Schneehöhe (cm)
Do, 29.09. 20:00 0
Do, 29.09. 14:00 0
Do, 29.09. 8:00 0
Do, 29.09. 2:00 0
Mi, 28.09. 20:00 0
Mi, 28.09. 14:00 0
Mi, 28.09. 8:00 0
Mi, 28.09. 2:00 0
Ortszeit Schneehöhe (cm)
Do, 29.09. 21:30 0
Do, 29.09. 21:20 0
Do, 29.09. 21:10 0
Do, 29.09. 21:00 0
Do, 29.09. 20:50 0
Do, 29.09. 20:40 0
Do, 29.09. 20:30 0
Do, 29.09. 20:00 0
Do, 29.09. 19:30 0
Do, 29.09. 19:00 0
Do, 29.09. 18:30 0
Link zu dieser Seite / Seite empfehlen

Das Wetter in ...